Location: Unspecified
(0.0000°N, 0.0000°E)
Time: 17:51:39
(UTC+00:00)

STARLINK 1067 - Pass Details

Date: 23 January 2020
Orbit: 548 x 551 km, 53.0° (Epoch: 17 January)

Event Time Altitude Azimuth Distance (km) Brightness Sun altitude
Exits shadow 05:13:51 19° 264° (W) 1,335 5.0 -13.6°
Maximum altitude 05:15:41 26° 304° (NW) 1,087 4.5 -13.2°
Drops below altitude 10° 05:19:10 10° 2° (N) 1,807 6.1 -12.4°
Sets 05:21:39 0° 15° (NNE) 2,697 7.1 -11.8°
